Flag Weather past 2 weeks in Kingston upon Hull, England, United Kingdom

Now
45 °F

Fog.


Feels Like: 41 °F
Forecast: 40 / 51 °F
Wind: 6 mph from Southeast

Location: Humberside

Current Time: Nov 21, 2014 at 2:32:25 AM

Latest Report: Nov 21, 2014 at 1:50 AM


Visibility: 1 mi

Pressure: 30.24 "Hg

Humidity: 93%

Dew point: 43 °F

Location of Kingston upon HullLocation

Historic Weather in Kingston upon Hull — Graph

°F

Kingston upon Hull temperature yesterday

Maximum temperature yesterday: 52 °F (at 12:50 PM)
Minimum temperature yesterday: 39 °F (at 12:50 AM)
Average temperature yesterday: 47 °F

Past Weeks' High & Low Weather Summary

 TemperatureHumidityPressure
High57 °F (Nov 11, 12:50 PM)100% (Nov 6, 1:20 AM)30.33 "Hg (Nov 6, 1:20 AM)
Low32 °F (Nov 6, 2:50 AM)66% (Nov 6, 11:50 AM)29.09 "Hg (Nov 7, 10:20 AM)
Average49 °F91%29.63 "Hg
* Reported Nov 6 1:20 AM — Nov 21 1:20 AM, Kingston upon Hull, Weather by CustomWeather, © 2014

Note: Actual official high and low records may vary slightly from our data, if they occured in-between our weather recording intervals... More about our weather records

Advertising

Kingston upon Hull weather history for previous 24 hours

 ConditionsComfort  
Time TempWeatherWind HumidityBarometerVisibility
1:20 AM
Nov 21
46 °FFog.5 mph93%30.24 "Hg1 mi
12:50 AM46 °FPassing clouds.2 mph93%30.24 "Hg1 mi
12:20 AM48 °FOvercast.3 mph94%30.24 "Hg2 mi
11:50 PM
Nov 20
48 °FMostly cloudy.7 mph94%30.27 "Hg3 mi
11:20 PM48 °FLight rain. Mostly cloudy.7 mph94%30.27 "Hg1 mi
10:50 PM48 °FPartly cloudy.9 mph94%30.27 "Hg1 mi
10:20 PM48 °FDrizzle. Overcast.8 mph100%30.27 "Hg1 mi
9:50 PM46 °FFog.2 mph100%30.27 "Hg1 mi
9:20 PM46 °FFog.No wind100%30.27 "Hg1 mi
8:50 PM45 °FFog.2 mph100%30.27 "Hg1 mi
7:50 PM48 °FFog.2 mph94%30.27 "Hg2 mi
7:20 PM48 °FFog.3 mph94%30.27 "Hg2 mi
6:50 PM48 °FFog.3 mph100%30.27 "Hg2 mi
6:20 PM50 °FFog.2 mph94%30.27 "Hg2 mi
5:50 PM50 °FHaze.No wind94%30.27 "Hg3 mi
5:20 PM50 °FPassing clouds.2 mph94%30.27 "Hg3 mi
4:50 PM50 °FPassing clouds.2 mph94%30.27 "Hg3 mi
4:20 PM50 °FPassing clouds.3 mph94%30.27 "Hg3 mi
3:50 PM52 °FScattered clouds.3 mph88%30.27 "Hg3 mi
3:20 PM52 °FScattered clouds.3 mph88%30.27 "Hg3 mi
2:20 PM52 °FScattered clouds.3 mph94%30.27 "Hg3 mi
1:50 PM52 °FFog.2 mph94%30.27 "Hg2 mi
1:20 PM52 °FFog.3 mph94%30.30 "Hg2 mi
12:50 PM52 °FFog.2 mph94%30.30 "Hg1 mi
12:20 PM50 °FFog.2 mph100%30.30 "Hg1 mi
11:50 AM50 °FFog.3 mph100%30.30 "Hg1 mi
11:20 AM50 °FFog.2 mph94%30.30 "Hg1 mi
10:50 AM48 °FFog.3 mph100%30.33 "Hg1 mi
10:20 AM48 °FFog.3 mph100%30.30 "Hg1 mi
9:50 AM48 °FFog.No wind94%30.30 "Hg1 mi
9:20 AM46 °FFog.3 mph100%30.30 "Hg1 mi
8:20 AM45 °FFog.No wind100%30.30 "Hg2 mi
7:50 AM45 °FFog.No wind100%30.30 "Hg2 mi
7:20 AM45 °FFog.No wind100%30.27 "Hg2 mi
6:50 AM45 °FFog.No wind93%30.27 "Hg3 mi
6:20 AM43 °FFog.No wind100%30.27 "Hg3 mi
5:50 AM45 °FFog.No wind93%30.27 "Hg3 mi
5:20 AM43 °FFog.No wind100%30.27 "Hg1 mi
4:50 AM43 °FFog.No wind100%30.27 "Hg1 mi
4:20 AM43 °FFog.No wind100%30.27 "Hg0 mi
3:50 AM43 °FFog.No wind100%30.27 "Hg0 mi
3:20 AM46 °FFog.3 mph93%30.27 "Hg2 mi
2:50 AM46 °FFog.2 mph93%30.27 "Hg2 mi
2:20 AM45 °FFog.No wind100%30.27 "Hg2 mi
Weather by CustomWeather, © 2014

See weather overviewHow to use our weather pages